Flag for U.S.A. Weather past 2 weeks in Coeur d'Alene, Idaho, U.S.A.

Now
39 °F

Clear.


Feels Like: 37 °F
Forecast: 25 / 54 °F
Wind: 3 mph from South

Location: Coeur d'Alene Weather Reporting System

Current Time: Mar 5, 2015 at 7:29:06 PM

Latest Report: Mar 5, 2015 at 6:55 PM


Visibility: 10 mi

Pressure: 30.29 "Hg

Humidity: 52%

Dew point: 23 °F

Location of Coeur d'AleneLocation

Historic Weather in Coeur d'Alene — Graph

°F

Coeur d'Alene temperature yesterday

Maximum temperature yesterday: 45 °F (at 2:15 PM)
Minimum temperature yesterday: 16 °F (at 3:55 AM)
Average temperature yesterday: 29 °F

Past Weeks' High & Low Weather Summary

 TemperatureHumidityPressure
High52 °F (Mar 5, 2:55 PM)100% (Feb 21, 12:15 AM)30.48 "Hg (Feb 21, 12:15 AM)
Low16 °F (Feb 22, 5:55 AM)22% (Feb 28, 2:55 PM)29.76 "Hg (Feb 27, 1:55 PM)
Average33 °F61%30.16 "Hg
* Reported Feb 18 6:15 PM — Mar 5 6:15 PM, Coeur d'Alene, Weather by CustomWeather, © 2015

Note: Actual official high and low records may vary slightly from our data, if they occured in-between our weather recording intervals... More about our weather records

Advertising

Coeur d'Alene weather history for previous 24 hours

 ConditionsComfort  
Time TempWeatherWind HumidityBarometerVisibility
6:15 PM
Thu, Mar 5
41 °FClear.5 mph42%30.28 "Hg10 mi
5:55 PM45 °FClear.3 mph42%30.28 "Hg10 mi
5:35 PM45 °FSunny.3 mph39%30.28 "Hg10 mi
5:15 PM48 °FSunny.5 mph34%30.27 "Hg10 mi
4:55 PM50 °FSunny.No wind30%30.27 "Hg10 mi
4:35 PM50 °FSunny.No wind32%30.27 "Hg10 mi
4:15 PM52 °FSunny.5 mph30%30.27 "Hg10 mi
3:55 PM50 °FSunny.No wind32%30.27 "Hg10 mi
3:35 PM50 °FSunny.7 mph30%30.27 "Hg10 mi
3:15 PM50 °FSunny.3 mph30%30.27 "Hg10 mi
2:55 PM52 °FSunny.5 mph28%30.28 "Hg10 mi
2:35 PM50 °FSunny.No wind25%30.28 "Hg10 mi
1:55 PM48 °FSunny.No wind32%30.28 "Hg10 mi
1:35 PM48 °FSunny.3 mph32%30.28 "Hg10 mi
12:35 PM46 °FSunny.No wind32%30.29 "Hg10 mi
12:15 PM46 °FSunny.6 mph32%30.30 "Hg10 mi
11:55 AM45 °FSunny.5 mph34%30.31 "Hg10 mi
11:35 AM45 °FSunny.7 mph34%30.31 "Hg10 mi
11:15 AM45 °FSunny.6 mph34%30.31 "Hg10 mi
10:55 AM43 °FSunny.3 mph39%30.32 "Hg10 mi
10:35 AM43 °FSunny.6 mph39%30.32 "Hg10 mi
9:55 AM37 °FSunny.6 mph45%30.33 "Hg10 mi
9:35 AM37 °FSunny.7 mph52%30.32 "Hg10 mi
9:15 AM36 °FSunny.8 mph56%30.32 "Hg10 mi
8:55 AM34 °FSunny.8 mph60%30.32 "Hg10 mi
8:35 AM32 °FSunny.10 mph60%30.32 "Hg10 mi
8:15 AM30 °FSunny.8 mph64%30.32 "Hg10 mi
7:55 AM30 °FSunny.10 mph64%30.32 "Hg10 mi
7:35 AM28 °FSunny.8 mph69%30.31 "Hg10 mi
6:55 AM23 °FSunny.No wind74%30.29 "Hg10 mi
6:35 AM23 °FSunny.No wind74%30.29 "Hg10 mi
6:15 AM23 °FClear.5 mph74%30.29 "Hg10 mi
5:55 AM21 °FClear.5 mph74%30.29 "Hg10 mi
5:35 AM21 °FClear.5 mph80%30.29 "Hg10 mi
5:15 AM21 °FClear.5 mph80%30.28 "Hg10 mi
4:55 AM21 °FClear.5 mph80%30.28 "Hg10 mi
4:35 AM23 °FClear.3 mph74%30.28 "Hg10 mi
4:15 AM23 °FClear.5 mph74%30.27 "Hg10 mi
3:55 AM23 °FClear.7 mph74%30.27 "Hg10 mi
3:35 AM25 °FClear.7 mph69%30.26 "Hg10 mi
3:15 AM25 °FClear.6 mph74%30.26 "Hg10 mi
2:55 AM25 °FClear.6 mph80%30.27 "Hg10 mi
2:35 AM23 °FClear.7 mph74%30.27 "Hg10 mi
2:15 AM25 °FClear.7 mph74%30.27 "Hg10 mi
1:55 AM25 °FClear.7 mph69%30.27 "Hg10 mi
1:35 AM25 °FClear.7 mph74%30.27 "Hg10 mi
1:15 AM23 °FClear.6 mph74%30.28 "Hg10 mi
12:55 AM25 °FClear.6 mph69%30.27 "Hg10 mi
12:35 AM25 °FClear.6 mph69%30.27 "Hg10 mi
12:15 AM25 °FClear.6 mph69%30.27 "Hg10 mi
11:55 PM
Wed, Mar 4
27 °FClear.5 mph69%30.27 "Hg10 mi
11:35 PM25 °FClear.3 mph74%30.27 "Hg10 mi
11:15 PM25 °FClear.5 mph69%30.27 "Hg10 mi
10:55 PM25 °FClear.3 mph74%30.27 "Hg10 mi
10:35 PM27 °FClear.No wind69%30.27 "Hg10 mi
10:15 PM27 °FClear.No wind64%30.26 "Hg10 mi
9:55 PM27 °FClear.No wind64%30.26 "Hg10 mi
9:35 PM28 °FClear.No wind64%30.26 "Hg10 mi
9:15 PM28 °FClear.No wind59%30.26 "Hg10 mi
8:55 PM32 °FClear.No wind55%30.25 "Hg10 mi
8:35 PM34 °FClear.5 mph51%30.25 "Hg10 mi
8:15 PM34 °FClear.No wind51%30.25 "Hg10 mi
7:35 PM36 °FClear.9 mph48%30.24 "Hg10 mi
7:15 PM36 °FClear.7 mph41%30.23 "Hg10 mi
Weather by CustomWeather, © 2015

See weather overviewHow to use our weather pages